COSMOS 1275 DEB, 42223

Orbit data source: Space-Track

COSMOS 1275 DEB, 42223 is space debris in LEO originally from a launch on Thu, 04 Jun 1981 UTC launched from the Plesetsk Missile And Space Complex (PKMTR). Debris objects in space refer to the collection of defunct objects orbiting the Earth. Examples of debris include non-operational satellites, rocket bodies, and fragments generated from explosions, collisions, or faulty payload assembly.

Loading next visibility...
Identifier
42223, 1981-053UP
Orbit
LEO
Country
Flag of CISCIS
Related business
Manufacturer
Unknown
Mission
Spacecraft
Bus & Motor
Unknown
Mass
Unknown
Launch date (UTC)
1981-06-04 (45 years ago)
Launch vehicle
Unknown
Launch site
Plesetsk Missile And Space Complex (PKMTR)
Object type
Payload
Rocket body
Debris
Shape & HBR
Unknown shape, 0.1 m
Radar Cross Section
Small (<0.1 m²)

Expand to show TLE details & history
Last TLE update: 1 day ago

TLE from 1 day ago
0 COSMOS 1275 DEB
1 42223U 81053UP  25340.36041294  .00011221  00000-0  38054-2 0  9992
2 42223  82.8600 121.4278 0036405 338.5671  21.3992 14.36255980575450
Epoch: 2025-12-06T08:38Z
TLE epoch observation values (Epoch: 2025-12-06T08:38:59.678Z)
Latitude
-0.00002°
Longitude
-83.71013°
Altitude
749.654 km
Speed
7.492 km/s
True Right ascension
08h 05m 42s
True Declination
0° 00' 00"
Sunlit
Object was in full shadow at epoch
Visualization orbit readout
Latitude
Unknown
Longitude
Unknown
Altitude
Unknown
Speed
Unknown
Apparent Right ascension
Unknown
Apparent Declination
Unknown
Sunlit
N/A
Visualization observer readout
Local Sidereal Time
11:43:24
Azimuth
Unknown
Elevation
Unknown
Doppler factor
Unknown
Orbital elements
Apogee altitude
793.979 km
Perigee altitude
741.948 km
Semi-major axis
7,146.1 km
Eccentricity
0.00364
Inclination
82.86°
RAAN
121.4278°
Arg. of periapsis
338.5671°
True anomaly
21.55206°
Mean anomaly
21.3992°
Eccentric anomaly
21.47556°
Mean motion
3.59285 °/min
Orbital period
100.2 mins
BSTAR
0.0038054
Loading maneuver chart data...
Computing Atmospheric mass density...

Documentation

Showing up to 5 results
|